Location: ?????????
(55.4020°N, 39.2046°E)
Time: 17:13:34
(UTC+00:00)

Daily predictions for brighter satellites

Satellite Brightness Start Highest point End
(mag) Time Altitude Azimuth Time Altitude Azimuth Time Altitude Azimuth
Cosmos 1867 3.7 16:52:11 10° SW 16:57:39 86° NW 17:03:11 10° NE
NOSS 2-3 (C) 3.7 16:56:45 10° SSW 17:00:14 39° SE 17:04:16 10° ENE
Cosmos 1833 4.3 16:54:56 10° NW 17:00:39 90° NE 17:06:18 10° SSE
Cosmos 2366 rocket 4.1 16:54:47 10° N 17:01:11 83° E 17:07:34 10° SSE
Cosmos 371 Rocket 4.4 16:57:59 10° NNW 17:02:12 29° NE 17:06:24 10° ESE
Cosmos 1300 Rocket 4.1 17:00:12 10° SSE 17:04:14 38° E 17:08:19 10° NNE
CZ-4B R/B 3.6 16:59:13 10° S 17:04:51 71° WSW 17:10:28 10° NNW
Cosmos 2344 3.5 16:57:36 10° SW 17:04:58 74° SE 17:12:35 10° NE
NOSS 2-3 (D) 3.7 17:01:53 10° SSW 17:05:23 40° SE 17:09:25 10° ENE
USA 186 2.2 17:02:37 10° S 17:05:39 60° WSW 17:08:40 10° NNW
SPOT 1/Viking Rocket 4.1 17:00:39 10° S 17:05:49 62° WSW 17:11:02 10° NNW
DELTA 2 DEB (DPAF) 4.1 17:02:22 10° NNE 17:06:33 54° ESE 17:10:41 10° S
SJ 16-02 1.5 17:02:23 10° NNW 17:06:45 74° WSW 17:11:03 10° SSE
ATLAS 3B R/B 4.0 17:02:21 10° SSE 17:06:58 19° ESE 17:11:45 10° ENE
Cosmos 2218 Rocket 4.1 17:01:31 10° N 17:07:59 87° ENE 17:14:23 10° S
Cosmos 1455 2.1 17:05:20 10° S 17:08:48 54° E 17:12:19 10° NNE
Cosmos 1953 2.1 17:07:17 10° S 17:11:05 79° E 17:14:57 10° NNE
USA 281 3.4 17:07:47 10° SSE 17:14:22 82° WSW 17:21:00 10° NNW
Cosmos 2098 Rocket 3.7 17:11:01 10° SSE 17:15:42 38° E 17:19:36 10° NNE
NOSS 2-2 (E) 2.8 17:12:45 10° SSW 17:15:50 53° SE 17:19:03 10° ENE
Cosmos 2278 Rocket 4.0 17:11:22 10° WSW 17:16:35 36° NW 17:21:51 10° NNE
Cosmos 2263 Rocket 4.3 17:13:02 10° NNW 17:16:55 18° NNE 17:20:47 10° ENE
Cosmos 1821 Rocket 4.0 17:10:45 10° N 17:16:58 66° ENE 17:23:04 10° SSE
Terra 2.8 17:17:20 10° ESE 17:21:26 30° ENE 17:25:33 10° N
CZ-4C R/B 3.8 17:18:27 10° NNE 17:21:37 30° E 17:24:40 10° SSE
Genesis I 4.1 17:23:17 10° NW 17:26:41 35° NNE 17:29:59 10° E
Okean-O 2.6 17:22:31 10° SSE 17:26:55 78° ENE 17:31:21 10° NNW
NOSS 2-2 (D) 2.8 17:26:53 10° SSW 17:29:57 50° SE 17:33:08 10° ENE
Ariane Rocket 3.8 17:26:24 11° SE 17:30:46 36° ENE 17:35:21 10° N
NOSS 2-3 (E) 3.3 17:28:09 10° SW 17:31:52 68° SE 17:36:17 10° NE
Cosmos 1486 Rocket 4.1 17:27:53 10° NNW 17:33:08 69° ENE 17:38:02 12° SE
SPOT 3 Rocket 4.4 17:30:51 12° ESE 17:35:13 36° ENE 17:39:56 10° N
BREEZE-M R/B 3.1 17:35:38 10° WSW 17:37:48 24° S 17:38:57 17° SE
Cosmos 1825 4.2 17:35:10 10° NNW 17:38:07 26° W 17:41:03 10° SSW
Cosmos 2084 Rocket 4.2 17:39:31 10° WSW 17:43:36 51° NNW 17:47:33 10° NE
USA 245 4.3 17:39:19 11° SE 17:44:25 53° ENE 17:48:56 10° N
Cosmos 1656 Rocket 3.8 17:39:29 10° SW 17:45:01 79° NW 17:50:32 10° NNE
USA 267 3.3 17:38:59 10° ENE 17:45:35 87° SSE 17:52:10 10° WSW
USA 129 2.7 17:45:14 10° N 17:47:52 58° WNW 17:50:26 10° SSW
Okean 1 Rocket 4.5 17:47:13 16° ESE 17:49:14 21° E 17:52:37 10° NE
Okean O Rocket 2.9 17:46:02 10° SSW 17:50:07 39° W 17:54:14 10° NNW
Cosmos 1302 Rocket 4.0 17:45:40 10° SSW 17:50:56 87° ESE 17:56:14 10° NNE
Cosmos 1975 Rocket 3.9 17:49:19 10° NNW 17:53:33 51° W 17:57:44 10° S
Resurs 01 Rocket 3.1 17:51:08 10° SSW 17:55:13 36° W 17:59:19 10° NNW
Iridium 4 Rocket 4.3 17:51:43 15° SE 17:55:49 38° E 18:01:05 10° NNE
Cosmos 2227 Rocket 3.3 17:52:32 10° NNW 17:57:42 34° NE 18:02:08 13° E
CZ-4C R/B 3.3 17:52:23 10° NW 17:58:30 54° NNE 18:05:51 11° E
MetOp-A 4.4 18:01:03 19° ESE 18:02:59 29° ENE 18:06:19 10° N
ATLAS CENTAUR R/B 2.9 18:00:24 10° NW 18:03:29 25° NNE 18:06:39 10° ENE
Cosmos 1934 Rocket 4.0 17:57:35 10° N 18:03:41 65° ENE 18:08:46 16° SSE
ATLAS 5 CENTAUR R/B 2.0 18:01:59 14° S 18:04:10 25° ESE 18:07:21 10° ENE
Landsat 4 3.5 18:03:43 17° SSE 18:06:21 83° WSW 18:09:55 10° NNW
NOSS 3-1 (A) 3.9 18:06:19 10° S 18:10:37 28° ESE 18:15:37 10° ENE
Cosmos 1346 Rocket 4.3 18:08:01 10° SW 18:11:35 37° WNW 18:15:12 10° N
SPOT 5 3.3 18:09:00 11° S 18:14:13 72° WSW 18:19:32 10° NNW
NOSS 2-2 (C) 3.0 18:13:53 10° WSW 18:17:01 70° NW 18:20:23 10° NE
Cosmos 1943 Rocket 4.4 18:14:27 10° W 18:19:11 27° NNW 18:23:57 10° NNE
Cosmos 1536 Rocket 3.5 18:15:00 10° NNW 18:19:25 89° W 18:22:32 19° S
ERS-1 Rocket 2.9 18:16:37 17° SSE 18:20:30 88° WSW 18:25:34 10° NNW
COSMOS 2455 3.1 18:15:12 10° NW 18:21:12 61° NE 18:25:16 21° ESE
Cosmos 2058 4.5 18:18:24 10° NNE 18:21:31 21° ENE 18:22:49 18° E
CENTAUR R/B 3.6 18:16:58 10° WNW 18:24:13 55° NNE 18:32:42 11° E
Cosmos 2151 Rocket 3.5 18:22:34 17° S 18:25:56 65° E 18:30:20 10° NNE
Cosmos 1777 Rocket 4.0 18:21:18 10° NNW 18:26:37 90° SSW 18:29:54 24° SSE
Cosmos 1461 4.2 18:23:14 10° WSW 18:27:06 40° NNW 18:30:52 10° NE
Cosmos 2297 Rocket 2.3 18:21:33 10° NNW 18:27:13 68° NE 18:30:35 25° SE
ARGOS Delta rocket 4.3 18:24:39 24° SE 18:27:51 59° ENE 18:33:13 10° N
SL-27 R/B 4.1 18:26:49 10° NW 18:29:13 23° WSW 18:30:59 14° SSW
NOSS 3-1 (C) 3.1 18:27:34 10° SSW 18:32:37 65° SE 18:38:50 10° NE
Cosmos 2219 4.3 18:28:32 10° NNW 18:33:47 36° NE 18:37:28 17° E
SL-4 R/B 1.9 18:30:59 10° WSW 18:34:25 44° S 18:34:56 41° SSE
Cosmos 2369 Rocket 3.1 18:29:51 10° WSW 18:35:24 51° NW 18:40:56 10° NNE
Cosmos 1354 Rocket 4.1 18:31:03 10° NNW 18:36:25 82° WSW 18:39:31 26° SSE
Cosmos 1503 Rocket 4.3 18:31:28 10° NNW 18:36:49 67° WSW 18:40:15 22° S
H-2A R/B 4.0 18:39:07 17° ENE 18:40:09 19° ENE 18:42:52 10° N
Cosmos 371 Rocket 3.6 18:38:09 10° NNW 18:42:55 61° WSW 18:45:33 25° S
SJ 16-02 4.1 18:42:45 10° WNW 18:44:18 12° W 18:45:51 10° WSW
Cosmos 1992 Rocket 4.3 18:40:50 10° SW 18:46:02 70° WNW 18:51:17 10° NNE
Okean 2 Rocket 3.1 18:45:50 17° SSW 18:49:20 84° WNW 18:53:53 10° N
Spot 2 Rocket 3.7 18:46:51 22° S 18:50:06 67° WSW 18:55:09 10° NNW
ARIANE 5 R/B 3.7 18:49:45 26° E 18:51:16 33° ENE 18:55:18 10° N
Cosmos 1892 Rocket 3.6 18:48:51 10° N 18:53:11 64° ENE 18:54:34 40° SE
ATLAS 3B R/B 2.8 18:49:15 10° SSW 18:56:18 62° SE 19:03:49 10° NE
Terra 2.4 18:55:55 21° SSW 18:58:51 51° W 19:03:30 10° NNW
Cosmos 304 Rocket 4.2 18:55:36 10° NW 19:00:16 54° WSW 19:02:28 29° S
Cosmos 2263 Rocket 3.2 18:57:13 10° NNW 19:02:28 38° NE 19:05:39 21° E
Genesis I 3.3 18:59:44 10° NW 19:03:17 51° SW 19:03:48 47° SSW
Sich 1 Rocket 4.0 19:00:53 15° SSW 19:04:24 62° WNW 19:08:51 10° N
Cosmos 1656 3.9 19:02:52 34° SSE 19:04:38 44° ESE 19:09:52 10° NE
NOSS 8 (E) 4.2 19:02:14 10° NW 19:05:12 71° SW 19:05:21 69° SSW
MOS 1 Rocket 3.1 19:06:13 39° S 19:07:44 76° WSW 19:12:06 10° NNW
Cosmos 1605 Rocket 4.1 19:01:58 10° NNW 19:08:24 78° W 19:12:10 27° S
Ariane Rocket 3.7 19:06:32 21° SSW 19:09:38 47° W 19:14:31 10° NNW
NOSS 8 (H) 4.1 19:07:20 10° NW 19:10:17 84° SW 19:10:22 83° S
Cosmos 2173 Rocket 4.4 19:06:00 10° N 19:12:15 52° ENE 19:14:55 33° SE
Cosmos 332 Rocket 3.8 19:08:44 10° NNW 19:13:36 79° WSW 19:15:12 43° SSE
Cosmos 1437 Rocket 2.6 19:10:03 10° NNW 19:13:57 83° ENE 19:14:35 61° SSE
SPOT 3 Rocket 4.2 19:11:28 23° SSW 19:14:30 49° W 19:19:34 10° NNW
ALOS 2 4.3 19:14:43 20° E 19:15:57 22° ENE 19:19:20 10° N
Cosmos 2344 4.3 19:12:40 10° W 19:19:47 53° NNW 19:27:56 10° ENE
Cosmos 1763 Rocket 3.8 19:25:21 41° ESE 19:25:41 42° ESE 19:30:30 10° NE
Okean 1 Rocket 3.5 19:24:18 26° SSW 19:26:41 60° WNW 19:31:09 10° N
Cosmos 405 Rocket 2.7 19:28:40 63° E 19:28:40 63° E 19:32:15 10° NNE
USA 267 3.3 19:22:03 10° E 19:28:37 79° N 19:35:11 10° W
CZ-2C R/B 4.3 19:24:34 10° NNE 19:29:03 39° E 19:29:16 39° ESE
Cosmos 990 Rocket 4.0 19:24:18 10° NNW 19:29:30 72° WSW 19:31:04 45° S
Cosmos 1455 Rocket 2.9 19:30:52 58° SSE 19:31:37 75° E 19:36:02 10° NNE
Aureole 1 Rocket 2.6 19:29:17 10° NNW 19:31:53 58° NW 19:31:53 58° NW
NOSS 3-2 (A) 4.1 19:27:38 10° NW 19:34:24 66° NNE 19:39:59 22° ESE
MetOp-A 4.4 19:39:03 32° SW 19:39:52 35° W 19:43:25 10° NNW
Cosmos 2016 Rocket 4.3 19:34:17 10° N 19:40:15 52° ENE 19:42:14 38° ESE
Meteor 2-1 Rocket 4.5 19:39:42 43° SE 19:40:40 47° E 19:45:57 10° NNE
Cosmos 2100 Rocket 4.0 19:34:52 10° N 19:41:18 79° ENE 19:43:38 42° SSE
ATLAS CENTAUR R/B 1.1 19:38:04 10° NW 19:41:47 75° NE 19:41:52 74° NE
Cosmos 2227 Rocket 2.2 19:36:34 10° NW 19:42:16 73° WSW 19:43:56 46° S
Cosmos 2360 4.4 19:42:16 46° SE 19:43:02 49° ESE 19:48:31 10° NE
Cosmos 1727 Rocket 3.9 19:40:46 40° S 19:43:11 73° E 19:49:26 10° NNE
Landsat 5 4.1 19:42:25 10° N 19:46:41 55° WNW 19:48:24 32° SW
CZ-4C R/B 2.9 19:40:44 10° NW 19:47:29 76° SW 19:50:57 38° SSE
ATLAS 5 CENTAUR R/B 1.6 19:44:11 10° WSW 19:47:43 60° NNW 19:51:51 10° NE
Cosmos 1844 Rocket 4.4 19:44:06 10° NNW 19:48:53 27° NNE 19:53:11 12° E
Cosmos 468 Rocket 4.3 19:49:18 45° ESE 19:49:25 45° ESE 19:54:23 10° NE
PSLV R/B 4.4 19:46:14 10° NNE 19:49:41 45° ENE 19:49:41 45° ENE
Cosmos 44 3.9 19:50:43 44° ESE 19:50:43 44° ESE 19:55:23 10° NE
Cosmos 1980 Rocket 3.5 19:52:26 24° E 19:52:26 24° E 19:56:16 10° NE
Cosmos 1869 4.3 19:52:49 33° ENE 19:52:49 33° ENE 19:55:33 10° NNE
H-2A R/B 4.3 19:50:05 10° ENE 19:51:05 12° ENE 19:51:05 12° ENE
Cosmos 2228 3.8 19:55:26 36° ENE 19:55:26 36° ENE 19:58:51 10° NNE
USA 81 4.0 19:54:56 48° SSW 19:56:29 83° W 20:01:48 10° N
Cosmos 372 Rocket 3.9 19:53:10 10° NNW 19:58:27 86° ENE 19:59:30 58° SSE
Cosmos 2058 3.1 19:54:30 10° NNW 19:58:28 56° W 19:58:42 55° WSW
Cosmos 540 Rocket 3.5 20:00:18 56° SE 20:00:33 57° ESE 20:05:35 10° NNE
NOSS 3-1 (A) 3.3 19:55:27 10° SW 20:00:43 82° NW 20:07:17 10° NE
Cosmos 2123 Rocket 4.3 20:00:05 43° SE 20:01:34 52° E 20:07:41 10° NNE
Cosmos 1697 Rocket 2.8 20:02:10 50° SE 20:02:37 51° ESE 20:08:07 10° NE
Cosmos 841 Rocket 4.5 20:03:46 31° E 20:03:46 31° E 20:07:45 10° NE
Cosmos 1000 Rocket 4.4 20:01:52 48° SSE 20:03:37 73° E 20:09:45 10° NNE
Meteor 2-15 4.4 19:59:32 10° NNW 20:05:43 88° ENE 20:07:30 50° SSE
Meteor 2-15 Rocket 4.5 20:00:05 10° N 20:06:16 71° ENE 20:07:58 48° SE
COSMOS 2455 3.5 20:01:22 10° NW 20:07:01 42° WSW 20:08:24 37° SSW
Cosmos 1544 4.4 20:05:37 10° N 20:07:19 30° N 20:07:19 30° N
USA 229 DEB 3.5 20:06:44 43° S 20:08:42 62° SE 20:15:32 10° NE
USA 229 3.5 20:06:53 44° S 20:08:48 62° SE 20:15:38 10° NE
Cosmos 1626 Rocket 3.5 20:05:15 10° NNW 20:09:38 70° W 20:09:54 67° SW
Cosmos 2297 Rocket 3.4 20:06:03 10° NW 20:10:54 30° WSW 20:12:24 26° SW
SL-4 R/B 4.4 20:09:40 10° W 20:09:47 11° W 20:09:47 11° W
Cosmos 2061 Rocket 4.2 20:07:02 10° N 20:13:29 66° ENE 20:15:22 46° SE
Cosmos 1937 Rocket 3.4 20:08:42 10° NNW 20:14:02 82° WSW 20:14:55 63° S
H-2A R/B 2.6 20:15:10 57° WNW 20:15:10 57° WNW 20:18:34 10° NNW
CENTAUR R/B 3.1 20:07:45 10° NW 20:15:39 83° SW 20:19:49 37° SE
Meteor 2-3 Rocket 3.7 20:10:42 10° NNW 20:16:23 84° WSW 20:17:38 56° S
Cosmos 2219 3.2 20:12:42 10° NW 20:18:21 68° WSW 20:19:22 56° S
Cosmos 1898 Rocket 3.6 20:13:19 10° NNW 20:18:31 60° WSW 20:19:15 54° SSW
Okean 1-7 Rocket 3.5 20:15:19 10° NNW 20:19:51 82° W 20:20:03 79° SW
NOSS 3-1 (C) 4.2 20:18:18 10° W 20:23:40 52° NNW 20:30:20 10° NE
SL-08 R/B 4.5 20:17:46 10° N 20:24:13 83° E 20:25:55 52° SSE
Cosmos 1725 Rocket 3.9 20:19:58 10° NNW 20:26:12 86° W 20:27:47 53° S
ARIANE 5 R/B 3.3 20:27:13 42° WSW 20:27:35 42° W 20:31:54 10° NNW
Cosmos 1544 Rocket 3.5 20:31:54 72° W 20:32:00 73° WNW 20:36:21 10° N
Cosmos 2233 Rocket 3.9 20:26:52 10° N 20:33:03 77° ENE 20:34:32 54° SSE
Cosmos 292 Rocket 4.2 20:31:10 10° NW 20:35:43 47° WSW 20:35:46 47° WSW
Cosmos 1666 3.8 20:33:28 10° N 20:36:01 36° NNE 20:36:01 36° NNE
Cosmos 1862 3.6 20:33:13 10° N 20:36:36 64° N 20:36:36 64° N
Cosmos 1606 3.3 20:38:29 51° N 20:38:29 51° N 20:41:18 10° N
Cosmos 1459 Rocket 4.4 20:33:33 10° NNW 20:39:23 50° W 20:41:05 39° SW
Cosmos 2082 3.6 20:34:49 10° NW 20:40:29 69° WSW 20:41:12 61° SSW
Cosmos 2263 Rocket 2.2 20:41:10 10° NW 20:46:45 63° WSW 20:47:19 59° SSW
NOSS 3-2 (C) 4.0 20:39:53 10° NW 20:46:50 78° NE 20:51:57 26° ESE
ATLAS 3B R/B 3.4 20:39:59 10° WSW 20:47:16 61° NNW 20:54:57 10° NE
Cosmos 1656 4.5 20:44:12 17° WSW 20:48:18 47° NW 20:53:38 10° NNE
Cosmos 1758 Rocket 4.3 20:46:00 10° NNW 20:50:12 43° W 20:50:12 43° W
Cosmos 1602 Rocket 4.1 20:46:25 10° NNW 20:50:27 47° W 20:50:27 47° W
ALOS 2 2.7 20:52:06 66° W 20:52:06 66° W 20:56:19 10° NNW
SL-19 R/B 4.2 20:46:49 10° NNE 20:52:26 80° ESE 20:53:25 62° S
Cosmos 2322 Rocket 4.2 20:55:58 14° E 20:55:58 14° E 20:58:37 10° ENE
Cosmos 1500 4.2 20:54:46 10° NNW 20:57:11 42° NNW 20:57:11 42° NNW
Spot 4 4.4 21:00:01 45° WSW 21:00:11 45° W 21:04:50 10° NNW
Lacrosse 4 Rocket 3.7 21:03:10 14° ENE 21:03:10 14° ENE 21:04:02 10° ENE
Cosmos 1763 Rocket 4.4 21:05:16 27° WSW 21:07:29 42° NW 21:12:24 10° NNE
Cosmos 1844 4.3 21:02:08 10° NNW 21:07:47 55° NE 21:10:04 34° ESE
Meteor 1-27 4.0 21:09:03 67° SSW 21:09:51 90° ESE 21:15:27 10° NNE
Uosat 12 SS-18 rocket 4.1 21:05:52 10° NW 21:10:14 73° WNW 21:10:14 73° WNW
Cosmos 1825 Rocket 3.9 21:07:04 10° NNW 21:11:00 56° WNW 21:11:00 56° WNW
SL-16 R/B 3.5 21:11:38 26° ESE 21:11:38 26° ESE 21:16:07 10° NE
USA 267 3.1 21:08:16 31° ESE 21:11:43 79° SSW 21:18:19 10° WNW
Cosmos 1606 Rocket 3.6 21:12:47 73° NNE 21:12:47 73° NNE 21:16:45 10° NNE
Cosmos 2058 Rocket 3.8 21:17:39 41° ENE 21:17:39 41° ENE 21:21:20 10° NNE
ATLAS CENTAUR R/B 3.7 21:16:23 10° WNW 21:16:59 13° WNW 21:16:59 13° WNW
Cosmos 2227 Rocket 4.1 21:21:57 10° WNW 21:25:22 17° W 21:25:45 16° WSW
NOSS 3-2 (A) 4.1 21:18:26 10° NW 21:25:27 56° SW 21:27:19 47° S
Cosmos 1271 Rocket 3.7 21:24:34 10° NNW 21:27:20 42° NW 21:27:20 42° NW
H-2A R/B 2.2 21:24:15 10° NNE 21:27:56 69° NNE 21:27:56 69° NNE
GEOS 3 Rocket 3.8 21:27:49 38° ESE 21:29:55 73° NE 21:35:13 10° NW
Cosmos 2278 4.2 21:30:50 43° ESE 21:31:00 43° ESE 21:36:21 10° NE
Cosmos 44 4.0 21:29:00 30° W 21:31:32 57° NW 21:36:43 10° NE
Cosmos 2228 4.3 21:32:00 30° WNW 21:32:20 30° WNW 21:36:06 10° N
ATLAS 5 CENTAUR R/B 3.4 21:28:55 10° WNW 21:32:22 29° N 21:36:23 10° NE
Geosat 3.9 21:33:18 71° SW 21:33:22 71° WSW 21:38:25 10° NW
Cosmos 1844 Rocket 2.6 21:27:57 10° NNW 21:33:37 80° NE 21:34:48 57° SE
Cosmos 1076 Rocket 3.6 21:30:09 10° NNW 21:34:03 70° NNW 21:34:03 70° NNW
Cosmos 1125 Rocket 3.4 21:29:43 10° NNW 21:34:59 80° ENE 21:35:40 67° SE
Cosmos 1980 Rocket 2.2 21:34:09 59° SW 21:35:15 80° NW 21:40:57 10° NNE
CZ-4C R/B 4.0 21:29:35 10° WNW 21:35:29 27° WSW 21:36:02 27° WSW
Cosmos 2344 4.3 21:28:12 10° WNW 21:35:36 56° NNE 21:45:01 10° E
PSLV R/B 3.6 21:31:48 10° NNE 21:36:24 87° WNW 21:36:24 87° WNW
Cosmos 2151 3.6 21:35:59 10° NNW 21:39:32 49° WNW 21:39:32 49° WNW
Cosmos 1238 Rocket 3.9 21:44:01 34° NNE 21:44:01 34° NNE 21:46:08 10° NNE
Cosmos 841 Rocket 3.9 21:43:46 45° W 21:44:52 55° NW 21:49:56 10° NNE
USA 238 DEB 3.8 21:39:10 10° NW 21:46:21 90° SSW 21:51:10 25° SE
USA 238 3.8 21:39:17 10° NW 21:46:27 90° NE 21:51:23 25° SE
Cosmos 1697 Rocket 3.6 21:43:51 25° W 21:46:45 44° NW 21:52:11 10° NNE
Helios 1A Rocket 3.2 21:49:34 63° NNE 21:49:34 63° NNE 21:53:05 10° NNW
Cosmos 2227 4.4 21:45:56 10° NW 21:51:30 53° WSW 21:51:39 53° WSW
Cosmos 1809 Rocket 4.4 21:50:40 57° S 21:52:00 78° E 21:58:13 10° NNE
Intercosmos 24 4.4 21:52:31 67° WSW 21:52:59 73° WNW 21:57:11 10° N
Cosmos 1726 Rocket 4.0 21:55:10 53° WNW 21:55:10 53° WNW 21:59:19 10° N
Cosmos 2369 3.8 21:54:29 53° WSW 21:55:46 73° NW 22:01:27 10° NNE
USA 229 DEB 4.2 21:54:04 13° WSW 21:59:49 58° NNW 22:06:56 10° NE
USA 229 4.2 21:54:13 13° WSW 21:59:55 58° NNW 22:07:02 10° NE
Cosmos-2242 3.6 22:01:13 47° E 22:01:13 47° E 22:05:06 10° NNE
Cosmos 2150 Rocket 4.0 21:56:05 10° NNW 22:01:16 79° ENE 22:02:11 60° SE
Cosmos 2298 Rocket 4.0 21:56:33 10° NNW 22:01:55 80° ENE 22:02:58 58° SE
Cosmos 2346 Rocket 4.5 22:03:20 54° SW 22:04:48 74° WNW 22:11:04 10° N
CENTAUR R/B 4.0 21:58:44 10° WNW 22:05:52 33° WSW 22:06:56 32° SW
Meteor 1-25 Rocket 4.1 22:02:42 10° NNW 22:08:24 86° WSW 22:09:25 62° S
Meteor 1-20 Rocket 4.1 22:03:52 10° NNW 22:09:27 73° W 22:10:17 62° SSW
Cosmos 1867 4.4 22:06:02 10° NW 22:11:26 51° NNE 22:16:47 10° ESE
CZ-2C R/B 4.2 22:08:25 13° ESE 22:12:38 33° ENE 22:17:22 10° N
USA 215 3.4 22:11:09 10° ENE 22:17:32 52° SE 22:18:42 47° S
Meteor 2-14 Rocket 4.4 22:18:19 53° SSW 22:19:49 78° WNW 22:26:01 10° N
Cosmos 1464 Rocket 4.2 22:14:14 10° NNW 22:20:28 60° W 22:21:54 49° SW
Resurs 1-4 Rocket 3.8 22:17:24 10° NE 22:21:36 23° E 22:23:46 18° ESE
Cosmos 158 Rocket 4.5 22:21:25 41° ESE 22:21:51 42° ESE 22:26:31 10° NE
Aureole 3 Rocket 3.1 22:18:02 10° N 22:23:37 78° ENE 22:24:02 70° SE
Cosmos 2333 Rocket 3.0 22:22:54 33° SE 22:23:56 36° ESE 22:29:03 10° NE
Lacrosse 5 3.3 22:26:26 24° ESE 22:26:26 24° ESE 22:29:51 10° E
Cosmos 2221 3.9 22:27:05 27° ESE 22:27:46 28° E 22:31:26 10° NNE
Cosmos 2360 Rocket 2.7 22:28:10 40° SE 22:29:12 45° ESE 22:34:33 10° NE
Cosmos 2263 Rocket 4.2 22:26:58 10° WNW 22:28:59 13° W 22:28:59 13° W
Cosmos 1766 Rocket 4.4 22:25:33 10° N 22:29:43 45° ENE 22:30:47 37° ESE
NOSS 3-4 (A) 4.4 22:29:01 27° SE 22:29:51 28° ESE 22:34:51 10° ENE
NOSS 3-4 (C) 4.4 22:29:04 26° SE 22:29:55 27° ESE 22:34:54 10° ENE
Cosmos 2278 Rocket 3.6 22:29:08 10° NNW 22:34:27 38° NE 22:39:43 10° ESE
Cosmos 1814 Rocket 4.4 22:34:20 44° WSW 22:35:33 55° NW 22:40:38 10° NNE
Cosmos 1570 Rocket 3.9 22:36:43 62° SSW 22:37:36 85° ESE 22:42:52 10° NNE
NOSS 3-2 (C) 4.3 22:30:49 10° NW 22:37:41 44° SW 22:39:19 40° SSW
USA 32 3.9 22:37:08 60° S 22:38:09 87° E 22:43:26 10° N
Cosmos 2322 Rocket 2.3 22:37:45 51° SSE 22:38:54 63° ESE 22:44:28 10° NE
Lacrosse 4 Rocket 1.3 22:39:06 74° NW 22:39:06 74° NW 22:43:03 10° NE
Cosmos 2034 Rocket 4.0 22:33:01 10° NNW 22:39:08 62° W 22:40:37 48° SW
ATLAS 3B R/B 4.0 22:32:07 10° WNW 22:39:19 45° N 22:46:48 10° ENE
Cosmos 2084 Rocket 4.4 22:38:51 10° NW 22:41:08 33° WNW 22:41:08 33° WNW
IDEFIX/ARIANE 42P 3.6 22:38:19 10° NNE 22:43:08 37° E 22:44:58 28° SE
Cosmos 1743 3.5 22:41:13 10° N 22:44:47 43° ENE 22:45:18 40° E
Cosmos 1812 3.8 22:45:20 32° NW 22:45:20 32° NW 22:48:12 10° N
BlueWalker 3 3.7 22:49:11 22° ESE 22:49:11 22° ESE 22:50:41 10° ESE
Cosmos 2219 Rocket 3.2 22:45:40 28° SE 22:47:17 34° ESE 22:52:16 10° NE
NOSS 2-2 (E) 4.1 22:43:36 10° NW 22:47:23 57° NNE 22:52:29 10° ESE
Cosmos 1844 4.2 22:46:30 10° NW 22:51:49 40° WSW 22:51:55 40° WSW
Cosmos 1933 3.1 22:52:13 89° NNW 22:52:13 89° NNW 22:56:11 10° NNE
Okean 3 Rocket 4.5 22:49:49 10° N 22:54:14 47° ENE 22:56:20 27° SE
SL-16 R/B 2.2 22:53:27 47° SW 22:55:07 78° NW 23:00:51 10° NNE
Cosmos 2058 Rocket 4.3 22:54:50 28° WNW 22:55:18 28° WNW 22:59:07 10° N
USA 267 3.7 22:55:32 38° SW 22:55:32 38° SW 23:01:24 10° WNW
NOSS 2-1 (C) 3.5 22:58:32 48° NE 22:58:32 48° NE 23:00:55 10° NE
NOSS 2-1 (E) 3.6 22:58:37 46° NE 22:58:37 46° NE 23:00:57 10° NE
Cosmos 1782 2.9 23:00:58 58° WNW 23:00:58 58° WNW 23:04:40 10° N
H-2A R/B 3.8 22:57:06 10° NNE 23:01:09 54° ESE 23:01:44 49° SE
NOSS 2-2 (D) 4.2 22:57:56 10° NW 23:01:37 55° NNE 23:06:36 10° ESE
H-2A R/B 4.0 23:00:56 10° NNW 23:03:41 17° NW 23:04:46 16° WNW
Cosmos 1634 Rocket 4.0 22:58:39 10° NNW 23:04:58 73° W 23:07:26 39° S
Cosmos 1812 Rocket 3.6 23:04:37 58° WSW 23:05:08 64° WNW 23:09:35 10° N
Timation 2 Rocket 4.4 23:00:42 10° NW 23:06:55 43° WSW 23:08:04 39° SW
GEOS 3 Rocket 4.3 23:08:52 36° WSW 23:08:52 36° WSW 23:13:09 10° WNW
Meteor 1-26 Rocket 4.3 23:06:37 41° S 23:08:42 77° E 23:14:32 10° NNE
ADEOS II 3.4 23:04:34 10° NNE 23:09:20 34° E 23:12:19 19° SSE
Meteor 1-14 Rocket 4.3 23:04:57 10° NNW 23:10:31 76° ENE 23:13:40 27° SSE
SL-16 R/B 2.9 23:06:47 10° SE 23:12:52 63° ENE 23:19:02 10° NNW
Meteor 1-28 Rocket 4.2 23:11:21 27° ESE 23:12:55 43° ENE 23:16:25 10° N
Geosat FO 4.4 23:10:51 10° NE 23:14:13 74° E 23:14:13 74° E
Cosmos 2278 4.3 23:12:42 31° WSW 23:15:08 50° NW 23:20:40 10° NNE
Cosmos 2142 Rocket 4.4 23:10:22 10° N 23:16:32 87° E 23:20:05 27° SSE
Cosmos 1844 Rocket 3.9 23:12:32 10° NW 23:16:26 24° W 23:16:26 24° W
ATLAS 5 CENTAUR R/B 3.3 23:13:19 10° NW 23:17:16 36° NNE 23:22:00 10° E
Cosmos 1980 Rocket 3.9 23:15:52 12° W 23:20:07 27° NNW 23:24:55 10° NNE
CZ-2D R/B 2.6 23:15:13 10° NNE 23:20:29 56° ESE 23:23:02 30° SSE
Cosmos 1726 3.2 23:17:48 10° N 23:20:47 34° ENE 23:21:59 25° ESE
Cosmos 1461 3.0 23:20:42 10° NW 23:24:36 67° NE 23:28:25 10° ESE
NOSS 2-1 (D) 3.3 23:25:50 46° NW 23:25:53 46° NNW 23:28:52 10° NE
Cosmos 2084 3.9 23:28:22 34° WNW 23:29:37 47° NNW 23:33:20 10° NE
Cosmos 1515 4.1 23:29:51 41° WNW 23:29:51 41° WNW 23:33:15 10° N
Cosmos 2208 Rocket 4.4 23:28:56 35° WSW 23:30:59 56° NW 23:36:22 10° NNE
Cosmos 1900 4.4 23:28:42 10° NW 23:33:40 53° SW 23:35:34 34° S
Cosmos 1943 Rocket 3.0 23:30:19 10° NNW 23:35:51 52° NE 23:41:24 10° ESE
USA 238 4.5 23:30:34 10° WNW 23:36:54 33° WSW 23:38:43 30° SW
Cosmos 1408 Rocket 3.8 23:32:57 10° N 23:37:16 68° ENE 23:39:56 22° SSE
Cosmos 1842 Rocket 3.9 23:36:39 32° SSE 23:38:33 61° E 23:42:58 10° NNE
Cosmos-2242 4.3 23:37:49 24° W 23:38:35 25° WNW 23:42:07 10° N
COSMOS 2428 3.5 23:40:42 22° S 23:43:55 44° ESE 23:49:18 10° NE
IRIDIUM 104 4.2 23:38:51 10° N 23:44:06 76° W 23:46:42 30° S
Meteor 1-11 Rocket 3.8 23:40:17 10° NNW 23:45:57 76° ENE 23:51:29 10° SSE
NOSS 2-2 (C) 3.5 23:44:56 10° NW 23:48:53 88° SW 23:54:20 10° SE
Cosmos 1378 3.6 23:50:17 36° WNW 23:50:25 37° WNW 23:53:35 10° N
Cosmos 2237 Rocket 4.0 23:48:01 10° SSE 23:52:28 24° ESE 23:56:57 10° NE
CZ-2C R/B 2.7 23:49:54 28° S 23:52:41 58° W 23:58:00 10° NNW
Cosmos 2369 Rocket 4.4 23:48:07 10° NNW 23:52:55 27° NNE 23:57:40 10° E
IRIDIUM 114 4.3 23:48:02 10° N 23:53:14 65° W 23:55:51 29° SSW
Cosmos 1805 Rocket 4.0 23:49:17 10° N 23:53:37 62° ENE 23:57:50 10° SSE
Cosmos 1500 Rocket 3.7 23:49:49 10° N 23:54:18 75° ENE 23:57:59 15° SSE
